RH
75 73 71 82 86 81 70 67 79 84 83 83 78 73 74 77 74 74 76 80 83 81 80 79 79 77 76 77 77 73 63 58 55 48 44 43 50 61 64 61 58 55 55 56 57 60 62 67 69 64 63 62 61 63 65 64 63 67 71 76 84 87
71 69 68 80 84 77 70 70 78 86 88 85 80 77 79 81 76 75 82 85 85 82 81 79 77 78 75 74 76 74 64 59 54 49 47 47 52 58 60 59 56 54 53 54 56 60 63 69 72 64 62 62 62 65 67 65 62 66 77 84 88 90
62 65 68 77 79 77 74 71 77 86 89 86 82 80 82 84 78 77 84 86 83 81 79 75 74 75 72 72 75 75 66 60 58 55 52 52 54 55 56 56 56 55 55 57 60 61 63 69 73 66 62 64 64 67 67 67 65 67 79 87 89 91
48 58 67 74 74 79 78 70 76 85 91 90 84 82 85 86 82 79 83 83 83 83 80 75 75 74 70 70 76 77 69 62 63 63 60 58 57 57 58 58 59 59 60 63 63 64 65 66 70 67 63 64 65 67 66 67 68 71 81 87 89 90
41 55 63 67 67 76 80 73 75 84 88 89 85 84 86 87 85 84 83 81 83 86 85 82 81 76 68 69 75 78 73 65 65 68 67 65 62 62 63 63 63 61 63 65 65 69 70 64 65 65 63 64 65 67 67 67 68 75 82 85 89 87
40 53 54 52 56 69 77 72 73 81 85 85 82 80 84 88 87 86 85 83 86 89 90 90 86 78 69 67 70 74 73 67 64 68 71 72 70 68 70 70 69 67 66 68 69 74 73 64 62 62 62 64 66 68 68 67 68 76 81 84 90 85
53 50 48 49 54 65 74 71 71 77 79 78 77 75 80 89 88 85 88 85 88 91 91 93 88 82 73 63 63 68 70 68 63 64 69 73 75 74 75 74 74 74 74 75 74 75 72 64 62 63 63 66 68 69 69 67 67 74 80 83 88 86
78 65 60 61 61 65 71 72 76 80 78 74 72 68 70 86 88 85 90 86 88 90 89 91 86 85 76 59 59 64 66 68 64 62 65 71 75 76 76 75 75 77 78 81 77 72 71 66 64 65 65 68 69 70 71 67 65 70 79 84 86 87
88 76 68 66 65 68 70 73 81 84 81 74 66 58 59 77 85 84 89 87 87 89 90 89 80 82 76 58 58 62 64 66 63 62 63 68 74 74 74 73 75 77 78 82 79 70 69 68 66 66 67 68 69 71 72 68 65 67 76 84 85 87
88 83 74 69 67 70 69 71 78 78 77 70 58 51 51 62 70 73 78 84 90 87 87 84 74 79 76 59 57 60 62 65 64 62 62 67 73 73 73 73 75 77 77 80 77 67 66 68 68 69 68 68 70 72 73 72 70 68 70 77 83 87
88 91 88 82 78 75 70 68 69 69 69 62 51 47 47 54 63 66 67 79 93 89 85 80 71 77 74 61 58 58 61 65 64 61 62 70 74 74 74 74 75 76 75 76 72 66 66 68 69 70 69 69 71 72 74 74 73 70 67 70 77 84
89 93 95 94 91 86 82 77 72 67 64 56 46 41 48 65 74 70 66 76 91 89 87 83 76 77 72 63 60 56 60 64 62 62 69 74 77 79 77 75 76 75 74 71 67 66 67 68 69 71 70 71 72 72 73 74 75 73 69 67 68 74
92 93 93 94 94 91 91 90 86 78 71 60 43 38 55 76 78 74 72 77 86 86 84 84 81 80 71 63 60 57 59 61 60 67 74 77 80 82 78 77 76 72 70 68 67 68 69 69 69 71 71 72 73 73 72 73 74 73 71 67 64 66
91 92 92 93 93 91 89 91 93 88 82 70 45 40 64 78 74 75 76 75 80 83 81 81 81 82 73 63 63 66 65 62 62 70 74 75 81 81 76 74 70 67 67 67 68 69 69 70 70 70 72 72 73 73 72 72 73 73 72 69 66 66
91 90 92 93 91 89 86 85 89 89 86 73 46 45 67 74 72 74 74 71 74 78 78 78 79 81 76 68 69 76 74 68 69 71 72 73 78 79 76 71 64 63 66 66 67 68 68 69 70 70 71 72 73 72 72 72 72 72 72 71 69 69
94 93 93 93 89 88 88 84 84 85 85 75 52 50 65 69 70 71 70 69 68 74 76 75 77 78 77 74 74 77 76 74 74 72 71 73 76 77 74 70 66 65 65 65 67 67 68 69 70 70 70 72 72 72 72 71 72 71 71 71 70 71
96 96 93 93 90 89 91 87 83 82 83 80 63 54 61 65 66 69 68 67 68 72 74 73 75 77 76 75 75 76 74 74 75 73 71 72 74 75 72 71 69 67 65 65 66 67 68 69 69 70 70 71 72 72 71 70 71 71 71 72 71 71
86 85 84 86 87 85 87 88 85 80 77 79 74 60 60 64 64 67 66 66 70 71 71 69 71 75 74 71 72 73 73 73 72 72 70 70 73 74 72 71 70 67 67 66 65 65 67 68 68 70 70 71 72 71 71 71 70 71 71 71 72 72
73 73 79 82 81 80 86 89 85 82 75 74 79 66 59 65 64 63 62 64 71 69 68 67 68 72 70 68 70 70 72 71 70 70 70 70 73 74 71 71 70 67 67 67 66 65 65 67 68 69 69 70 72 71 71 71 71 71 71 71 72 72
71 70 78 80 78 77 83 89 86 87 80 70 79 76 61 64 65 59 58 63 67 68 69 68 68 69 66 67 68 67 69 67 67 68 69 71 71 70 68 69 68 64 64 65 65 63 63 65 66 68 69 70 71 72 71 71 72 72 71 72 72 72
76 74 76 74 76 76 77 84 85 89 87 71 76 86 72 64 65 61 59 61 62 64 68 67 67 67 65 65 63 62 62 62 67 68 67 68 66 66 67 65 64 61 61 62 62 60 57 61 67 70 72 73 72 72 72 72 72 72 72 72 73 73
85 84 82 77 78 78 74 76 77 80 87 80 75 85 82 68 62 65 64 61 59 61 63 63 64 65 62 60 59 59 58 58 65 67 66 64 61 66 67 61 60 60 58 56 57 57 55 60 70 73 74 77 78 75 72 73 75 74 74 73 73 74
93 89 85 84 82 81 74 70 70 69 77 86 79 77 85 78 65 67 68 62 59 60 61 61 62 62 60 57 56 57 54 53 58 61 61 57 54 62 63 56 56 60 57 52 53 54 53 59 66 70 76 81 87 88 82 78 77 76 74 75 74 75
97 92 88 85 83 85 82 74 70 68 70 80 80 74 82 86 73 69 71 65 61 61 63 64 63 61 60 57 55 55 53 51 51 53 55 50 46 51 54 51 53 58 58 55 53 50 48 52 55 63 76 82 87 94 93 85 81 77 75 76 75 75
98 96 93 88 85 91 96 89 81 81 81 82 85 80 80 87 80 69 70 71 67 66 66 67 65 61 58 56 58 59 57 53 50 51 52 49 46 45 42 42 47 53 56 56 54 50 47 48 50 54 64 74 80 88 92 85 81 79 74 75 76 74
98 100 98 94 90 94 100 98 90 90 92 90 91 86 77 82 83 70 66 72 74 73 70 67 66 63 57 53 56 61 61 57 53 51 51 50 53 50 38 31 37 45 50 55 56 54 52 51 53 54 55 61 66 73 77 74 79 82 75 73 75 76
98 100 101 99 96 97 99 99 95 91 91 89 88 85 72 72 80 73 65 67 71 75 74 68 66 66 61 52 51 57 60 60 58 54 54 55 57 55 44 32 33 39 43 51 58 59 58 56 57 58 58 57 55 57 61 63 73 81 80 79 76 74
99 98 100 101 99 100 100 100 99 95 93 87 81 77 69 69 78 74 65 64 65 69 74 70 66 68 68 61 52 49 50 57 63 60 59 61 60 56 50 43 43 46 45 50 58 61 62 63 62 61 62 62 58 55 57 60 65 69 76 83 78 72
99 99 99 101 100 100 100 100 100 99 98 93 81 73 69 72 76 70 64 66 64 64 71 72 69 69 72 72 67 57 48 49 59 65 65 64 63 58 51 50 54 58 56 56 59 62 64 66 66 65 65 66 64 60 59 63 66 69 74 80 82 80
99 100 100 100 100 100 100 100 99 98 99 98 91 83 79 78 76 72 70 73 71 67 68 69 68 71 76 79 80 77 67 55 52 61 69 70 68 63 55 53 58 62 64 65 65 67 68 68 69 72 76 80 80 76 73 71 72 76 78 79 85 86
98 100 100 100 100 100 100 100 98 98 99 100 97 91 86 84 82 80 79 79 77 76 77 72 65 67 75 80 80 80 80 72 57 52 61 68 69 67 63 60 61 64 67 70 71 73 73 71 73 79 83 84 83 82 84 83 81 82 83 84 88 90
97 99 100 100 100 100 100 100 99 99 98 99 99 94 89 90 90 87 85 83 82 84 85 78 68 64 67 73 76 77 80 79 68 55 51 54 56 60 67 68 67 68 68 68 69 71 74 74 76 79 77 71 68 69 72 75 76 79 81 83 87 91
94 95 98 99 100 100 100 100 100 99 96 95 96 93 88 89 90 89 88 87 85 84 82 76 74 70 62 62 67 73 80 78 71 66 59 53 51 57 67 73 73 73 72 71 69 69 71 74 77 79 77 71 68 68 67 67 71 76 80 81 85 89
95 96 98 99 99 99 99 100 100 100 99 94 90 88 84 81 83 86 86 83 80 76 75 75 77 76 68 63 64 70 82 81 72 70 70 66 63 64 68 71 73 74 74 74 74 74 76 78 78 78 77 75 72 70 69 69 73 77 82 83 84 87
97 97 93 93 96 97 97 98 97 97 100 96 88 87 84 78 80 86 86 84 80 76 75 76 76 78 75 72 71 74 81 86 80 75 75 75 73 72 73 74 75 76 76 75 75 78 81 81 80 79 78 77 76 74 73 75 78 79 83 86 86 85
91 95 92 92 97 99 98 97 94 93 99 100 93 89 85 83 88 91 88 88 88 86 83 79 77 80 80 75 76 81 82 85 86 81 79 80 79 78 78 78 78 78 78 78 78 80 82 82 82 81 79 81 84 83 81 84 87 86 88 91 91 89
82 88 91 94 99 100 98 97 97 97 99 100 98 95 89 90 95 92 88 89 89 85 82 80 78 80 81 76 75 79 81 84 87 81 78 79 78 79 79 77 76 76 76 77 77 78 79 79 80 79 78 84 89 89 88 89 90 89 92 96 96 95
Wind_Speed
25 21 21 21 18 16 15 16 16 15 15 14 14 14 13 13 13 12 12 11 11 11 12 11 11 11 10 9 8 8 9 11 12 13 13 15 18 20 21 21 21 21 19 19 19 18 18 17 15 16 15 12 11 10 11 12 14 16 18 18 18 16
25 22 23 22 20 19 17 17 16 15 15 15 14 14 14 14 14 13 12 12 11 11 12 12 11 11 10 9 8 8 10 12 15 16 17 18 19 19 20 20 21 20 19 19 17 16 16 15 13 14 14 11 10 10 11 11 13 16 17 18 17 16
26 24 24 24 23 21 20 19 17 17 16 16 15 15 14 15 15 14 13 12 11 11 11 11 11 11 10 10 8 8 10 13 17 18 20 21 20 20 20 21 21 20 19 17 14 14 12 11 11 12 12 10 9 10 10 11 13 15 16 17 16 15
27 26 25 25 25 23 21 20 19 18 16 17 17 16 16 16 16 15 14 12 11 10 11 11 11 11 11 10 9 9 10 13 17 18 19 21 21 21 21 21 20 19 17 15 14 14 10 8 9 12 12 10 9 9 10 11 13 15 17 17 16 15
30 29 28 27 27 25 23 21 21 20 18 18 18 17 17 16 17 16 15 13 11 10 11 11 12 11 12 12 11 10 11 13 16 16 17 18 18 19 19 18 18 17 15 14 14 13 10 9 10 13 12 9 9 9 9 10 12 15 16 16 15 13
34 32 30 30 29 27 26 24 23 22 20 20 19 19 18 18 18 17 16 15 13 12 12 12 12 12 12 13 13 12 12 13 15 15 15 15 15 15 14 14 14 14 12 10 9 8 10 11 11 12 11 9 9 8 8 8 12 14 15 15 14 12
33 34 33 32 31 30 27 25 25 24 23 22 22 21 21 20 19 18 18 17 16 14 14 13 13 12 13 14 14 13 13 13 14 13 13 13 12 12 11 10 9 10 9 7 6 6 12 13 9 10 10 9 8 7 7 8 11 12 13 13 12 11
29 32 33 32 32 30 28 26 25 25 23 23 23 22 22 22 21 20 19 18 17 15 15 15 13 13 13 15 15 14 14 14 14 13 12 11 11 9 8 8 7 7 6 5 6 8 12 12 8 8 8 8 7 6 7 8 9 11 12 12 12 11
27 29 30 30 30 30 29 27 26 26 24 22 22 22 22 23 23 21 21 19 17 16 16 16 14 13 14 15 15 15 15 15 15 13 12 11 10 8 7 7 6 5 5 4 6 11 13 11 8 7 6 6 6 5 6 8 8 9 11 12 11 11
25 26 28 28 29 30 30 29 28 27 24 23 22 22 22 23 22 21 21 20 17 17 18 17 15 14 15 16 16 16 16 15 15 14 13 11 8 7 6 6 5 4 4 5 9 14 14 10 9 8 6 5 5 5 5 7 8 8 10 11 11 11
23 23 25 27 28 30 31 31 31 28 26 24 23 23 23 22 21 20 21 21 18 18 18 17 16 15 16 17 17 17 18 17 15 15 14 11 9 7 6 6 6 5 4 8 13 15 13 11 10 9 7 6 5 5 5 6 7 7 8 9 11 12
22 21 21 23 23 25 28 29 30 29 27 24 24 24 23 22 20 18 20 21 20 20 19 18 17 17 17 17 18 19 18 18 17 16 14 11 9 8 8 8 8 8 8 13 15 13 11 11 11 10 9 7 6 5 5 5 6 6 7 7 9 11
19 18 18 18 16 17 20 22 25 26 25 24 24 25 24 22 20 18 19 20 20 21 20 18 18 17 17 17 18 19 19 18 17 16 14 12 11 10 10 10 10 9 13 17 14 12 12 11 11 11 10 9 8 7 5 5 5 5 6 6 7 9
16 17 16 15 13 12 13 13 17 20 22 22 23 26 24 22 20 19 19 20 21 22 20 18 18 18 17 18 19 19 18 17 16 16 14 13 13 11 9 9 10 14 17 16 12 13 14 13 12 11 11 10 9 8 7 6 5 4 4 5 6 7
14 16 14 14 15 14 12 12 13 16 19 21 23 25 24 23 20 20 21 20 21 22 21 19 18 20 18 19 19 19 18 17 15 15 14 13 13 11 9 9 14 17 16 13 13 14 14 14 13 12 12 12 11 9 9 8 7 6 4 4 5 6
10 13 11 11 15 14 11 12 15 17 16 18 23 24 23 23 21 21 22 20 21 21 22 20 19 20 20 18 19 19 19 17 16 16 15 14 13 12 11 12 14 14 14 14 14 15 15 15 15 13 12 13 13 11 10 10 10 9 7 6 6 6
7 9 9 9 11 10 9 11 13 17 18 16 22 25 22 23 22 22 23 20 20 21 21 21 20 21 21 18 18 19 19 18 17 16 16 16 15 13 12 12 12 13 14 14 14 15 16 17 15 14 14 14 14 13 13 12 12 11 10 10 8 8
11 12 16 16 15 14 13 12 12 15 20 16 18 26 25 23 24 24 23 21 19 20 21 21 21 22 21 19 17 17 18 17 17 16 17 17 15 13 12 12 12 13 14 14 14 14 16 17 16 15 15 15 14 14 14 14 14 14 13 12 11 11
21 18 22 25 24 21 16 15 15 13 19 18 13 22 28 25 27 27 24 23 21 19 21 22 22 22 21 20 18 17 17 17 16 17 17 18 16 15 15 13 12 13 14 13 12 14 16 17 16 16 16 15 15 14 14 15 16 16 16 15 13 13
29 23 22 27 28 27 21 17 17 14 17 21 13 15 26 28 28 29 26 25 24 19 20 22 21 23 22 20 20 18 18 18 18 17 18 18 17 17 16 14 13 13 13 13 11 12 15 16 18 17 16 16 15 14 14 16 17 18 18 17 15 15
27 25 23 28 31 31 28 22 21 18 16 21 17 10 18 29 29 29 29 27 26 23 21 21 21 23 24 21 21 20 18 18 20 19 18 18 17 17 16 13 13 14 14 13 11 9 11 16 18 15 14 15 17 17 15 16 18 19 19 18 17 17
22 24 24 28 31 33 33 30 28 27 21 19 21 12 9 21 27 27 29 29 29 27 25 24 22 23 24 22 22 22 19 17 20 21 19 17 17 18 17 13 11 14 15 14 13 10 9 13 16 13 10 9 11 15 16 16 17 18 19 19 18 19
18 22 23 25 30 33 36 36 34 33 27 20 21 18 8 11 22 25 28 30 30 30 28 27 26 24 23 22 22 24 22 19 20 21 19 18 18 19 19 14 11 14 16 15 15 13 10 11 13 11 7 4 3 5 9 13 17 20 20 20 20 20
16 20 24 25 27 31 33 36 36 35 32 25 23 24 15 10 16 23 25 29 30 30 29 28 28 27 25 24 23 23 23 22 22 22 20 18 18 19 20 17 13 13 15 15 16 15 14 13 13 11 5 1 1 1 2 7 13 19 22 22 22 21
16 19 22 25 25 26 28 31 33 30 28 27 24 25 21 15 12 18 22 26 28 28 28 28 27 27 28 27 25 23 21 22 24 23 22 19 18 18 20 20 17 15 16 17 17 17 17 16 16 15 10 4 1 1 3 3 4 10 14 18 22 22
16 18 19 22 24 24 26 29 31 29 27 28 25 25 27 23 16 14 17 22 26 27 27 28 26 25 27 29 29 26 21 21 24 24 23 20 19 19 19 21 21 19 19 19 19 19 19 18 16 17 17 14 9 5 3 0 0 2 5 9 15 20
16 18 19 20 22 24 25 28 31 32 30 30 28 27 30 29 22 16 15 18 22 26 27 27 27 25 26 28 30 29 24 20 22 24 23 21 21 20 20 20 20 21 21 20 20 21 21 19 17 17 17 18 19 16 11 6 2 2 4 5 7 13
12 15 19 20 22 24 23 25 28 29 29 31 31 30 30 29 27 21 17 17 20 24 27 28 28 27 26 27 28 29 27 23 22 23 23 23 22 22 21 20 20 21 21 21 21 21 22 20 18 18 16 16 17 19 18 13 9 6 3 3 6 8
8 13 16 17 21 24 22 19 20 20 22 26 29 29 28 28 28 25 20 20 21 23 25 27 27 27 27 27 27 27 27 26 24 24 24 24 23 21 21 22 22 22 22 22 22 22 22 21 20 20 19 16 15 16 16 13 11 9 5 4 4 4
6 11 13 14 19 24 22 19 17 17 18 21 23 24 25 25 26 25 21 20 21 23 24 25 26 26 26 26 25 24 25 27 26 24 24 24 23 22 22 22 22 22 22 22 22 22 23 23 21 18 14 11 12 14 12 9 9 8 5 6 6 6
6 9 12 13 18 21 23 23 22 20 19 19 21 21 23 23 23 23 22 20 20 20 22 23 24 24 24 23 22 22 22 24 26 25 25 24 24 23 23 23 22 22 22 22 21 21 21 22 20 15 11 9 10 10 9 8 11 8 1 2 5 7
6 11 12 12 15 18 20 23 24 23 21 20 19 20 20 20 20 21 21 20 19 18 18 20 21 23 25 23 21 20 20 22 25 25 26 27 26 25 22 22 23 22 22 23 23 22 20 20 20 18 17 16 15 14 13 12 14 12 5 5 7 7
4 9 10 8 11 14 16 20 23 22 22 21 21 21 20 18 18 19 19 19 19 18 17 18 20 23 24 23 23 20 17 22 25 24 25 26 26 25 23 22 21 21 21 22 24 24 21 20 20 19 19 19 18 18 18 16 15 15 13 11 9 8
3 5 6 7 9 12 14 17 18 18 19 21 22 21 22 20 18 17 18 19 20 20 20 20 20 19 19 20 21 20 15 17 22 24 25 25 24 24 24 23 22 20 20 21 23 22 21 20 21 21 19 19 19 18 18 16 15 15 15 13 12 10
3 2 3 5 6 9 12 15 16 17 20 22 22 22 22 21 19 16 16 17 18 19 19 19 17 15 14 15 17 18 15 14 16 20 23 24 23 22 22 22 22 21 19 19 20 20 20 20 21 21 19 19 19 17 17 16 15 17 17 15 14 13
6 3 1 2 3 6 11 14 14 16 20 22 21 22 22 20 17 15 13 14 16 18 17 17 15 13 13 14 16 17 16 14 15 16 17 18 19 19 19 19 19 19 18 16 16 18 19 20 19 19 19 18 17 17 15 14 15 17 17 15 14 15
7 6 3 1 2 4 8 12 12 13 18 21 19 19 19 17 13 13 14 13 14 16 16 16 16 14 13 15 17 17 15 14 16 18 18 18 18 17 17 17 17 17 16 15 15 16 18 19 19 18 17 16 15 15 14 13 13 13 14 15 15 16
Wind_Direction
158 159 161 165 167 166 164 165 168 173 170 169 171 169 168 167 169 170 167 166 166 163 159 158 154 148 144 138 127 120 110 100 99 104 109 114 123 129 132 131 126 121 117 115 114 115 115 111 121 132 130 127 120 111 109 111 121 124 122 124 126 126
158 159 161 164 166 163 162 167 173 176 174 174 175 174 174 171 172 173 170 168 171 170 166 165 162 158 153 143 134 128 120 109 107 110 112 115 121 128 133 132 128 124 121 121 118 117 117 108 115 133 135 131 120 113 113 116 123 126 126 128 130 129
160 161 162 165 166 165 166 169 176 178 175 176 178 180 181 178 176 176 174 173 176 175 172 170 170 169 161 150 144 138 131 121 114 113 115 117 121 126 129 130 128 127 124 121 118 115 116 117 124 139 142 132 119 114 115 119 125 130 131 130 130 130
163 163 163 165 166 168 170 171 177 179 174 175 180 183 183 182 180 181 180 178 179 180 176 172 172 174 167 159 155 151 144 134 125 120 120 121 125 127 128 129 128 127 126 119 114 106 102 123 142 149 148 134 122 117 116 123 129 133 134 133 133 134
165 165 164 166 168 172 173 173 178 181 178 177 181 183 183 184 185 186 184 181 183 186 182 174 176 176 171 168 166 165 159 149 141 134 131 129 130 132 129 128 128 129 127 120 112 99 100 126 144 150 150 139 126 117 116 128 137 138 139 138 138 140
168 167 166 168 170 174 177 178 181 184 184 183 185 187 188 186 186 188 184 182 182 187 187 181 182 179 175 175 175 175 169 162 157 150 147 146 145 144 140 136 133 133 132 128 120 104 122 138 142 147 147 137 125 114 116 134 145 144 143 143 142 144
170 169 169 170 169 173 179 182 185 187 189 191 191 193 195 189 187 187 183 182 181 185 190 187 187 182 180 181 181 181 176 173 172 167 163 163 165 162 159 156 147 146 147 148 150 131 139 149 148 145 144 135 124 108 110 135 150 150 146 144 145 148
173 170 170 170 169 173 179 185 188 189 190 194 195 196 198 192 189 187 184 184 184 189 195 193 192 188 185 183 185 186 180 180 181 178 177 178 182 175 166 168 166 167 165 158 168 154 147 157 161 153 148 140 130 110 108 128 145 149 145 146 151 154
176 174 174 173 171 174 179 184 189 190 190 194 197 196 196 193 191 190 188 187 188 194 200 200 198 194 190 186 186 188 185 187 187 185 187 189 192 188 175 173 176 179 171 164 179 166 157 167 175 170 165 152 139 120 114 123 133 146 150 156 161 159
180 177 178 178 178 179 181 185 189 192 192 195 198 195 192 191 191 193 191 190 193 199 203 204 202 197 195 190 188 191 190 190 190 190 194 197 203 202 196 203 209 200 188 193 187 171 167 180 186 184 183 170 154 134 122 122 125 141 155 164 163 160
183 181 182 183 183 184 185 187 190 192 194 195 195 192 189 188 188 191 192 192 196 205 207 207 204 200 197 191 189 192 193 193 192 192 198 206 208 213 223 236 238 238 225 192 181 176 178 188 192 194 193 184 171 154 141 132 127 135 152 165 165 166
187 186 187 187 185 186 188 190 191 193 194 193 191 188 186 187 188 191 196 196 200 207 210 210 208 204 199 193 191 193 195 195 192 193 201 208 214 229 240 241 246 251 213 180 175 182 189 193 195 199 201 197 187 175 165 149 136 135 144 157 166 171
194 191 191 190 189 192 193 194 195 196 196 193 188 186 183 186 190 194 201 202 204 209 211 212 211 208 200 194 193 193 196 197 195 197 203 211 223 235 241 243 243 224 189 178 179 188 193 196 196 198 203 206 199 191 185 173 161 146 143 147 158 164
200 193 191 191 194 201 203 201 199 202 205 201 189 185 183 187 194 201 207 207 208 211 211 212 210 208 202 195 195 196 197 199 202 203 204 214 224 227 236 236 206 185 180 181 186 190 193 197 197 199 204 209 209 204 200 194 187 174 162 155 162 167
205 200 195 194 199 203 203 200 201 205 212 211 194 186 186 190 198 207 210 209 211 213 212 212 209 207 203 197 199 202 202 202 208 208 205 212 221 225 224 197 177 177 181 186 189 191 195 199 200 204 206 208 213 215 214 210 207 201 200 196 197 195
210 207 204 207 210 207 207 206 203 201 208 214 200 191 191 194 202 211 210 210 213 212 212 211 208 207 206 203 204 208 207 208 214 214 209 211 216 220 209 187 180 182 185 188 190 194 200 201 203 206 209 211 213 220 223 220 222 218 213 219 227 224
232 224 215 225 228 225 237 231 211 200 200 210 207 200 195 197 205 210 208 211 212 208 210 211 209 209 208 205 207 209 210 214 218 216 210 210 214 214 207 196 193 193 194 195 193 198 203 202 203 206 210 213 213 220 227 227 232 230 225 227 230 234
241 232 216 218 227 228 239 238 228 214 202 206 218 209 203 205 207 208 207 209 208 206 210 211 208 209 206 202 205 208 212 215 215 213 208 207 211 211 207 206 205 201 203 205 201 203 206 204 204 206 211 215 214 219 229 233 235 234 233 236 237 238
229 226 212 209 215 220 225 223 225 228 206 205 228 215 209 213 208 205 206 204 203 207 209 209 208 207 203 201 202 207 213 213 208 207 205 205 207 208 205 210 213 209 211 217 219 215 211 208 205 207 212 217 217 221 227 231 234 234 237 242 246 247
224 224 215 208 213 216 215 213 217 232 215 203 218 219 206 207 206 202 204 203 203 203 200 201 206 204 202 203 202 206 212 211 208 205 204 206 207 206 206 214 220 216 217 223 223 221 219 214 208 208 214 218 221 225 228 229 232 235 239 243 246 248
219 221 218 213 216 216 212 209 209 225 229 204 205 227 203 197 202 202 201 204 204 201 195 193 195 197 199 202 201 205 210 210 209 206 206 210 208 207 210 222 229 219 217 223 221 225 232 218 206 205 214 221 223 225 228 231 235 237 240 243 245 246
216 217 218 215 215 216 212 207 204 211 228 217 203 218 219 195 198 203 201 202 204 203 202 199 194 194 197 199 201 206 210 208 208 207 212 217 213 214 219 227 232 218 214 226 234 239 238 213 201 204 209 219 230 232 234 237 239 240 241 243 245 247
214 216 217 215 214 214 213 211 208 205 214 224 207 202 230 210 193 199 201 200 203 205 206 207 203 201 200 201 204 207 209 211 211 212 216 218 216 220 225 227 225 217 215 225 236 243 240 217 207 209 203 206 236 237 247 248 243 240 240 243 246 248
215 219 220 218 216 214 212 212 212 210 209 216 211 198 216 245 197 192 200 200 203 206 207 209 208 207 206 205 208 209 210 215 216 215 217 217 217 219 223 226 221 218 222 227 235 243 246 239 227 221 206 173 151 126 276 259 245 243 241 241 243 245
224 228 225 222 219 212 206 205 207 210 209 211 211 201 209 242 216 186 196 201 203 207 207 208 208 208 209 208 210 212 213 217 217 216 218 220 224 225 223 225 224 224 228 231 237 243 249 250 243 238 232 211 116 76 252 249 257 256 248 242 242 242
231 235 235 227 223 216 204 199 199 201 203 203 205 203 204 224 228 192 192 202 202 205 207 207 208 208 210 209 212 216 217 216 215 216 219 223 231 233 228 225 226 228 231 234 238 240 247 251 250 249 245 238 240 252 259 287 44 299 289 260 245 242
237 237 241 232 225 222 209 202 201 200 203 201 202 206 204 214 233 222 202 204 204 204 206 208 209 208 211 212 214 219 221 216 214 216 220 226 232 235 233 230 230 233 237 239 238 237 244 251 253 254 254 251 252 255 266 282 263 287 326 296 263 252
247 242 243 234 222 221 214 207 206 204 205 202 202 205 203 210 230 234 219 214 209 206 208 209 210 210 213 217 219 223 226 223 218 218 222 228 233 236 237 235 235 238 241 244 244 242 246 252 254 256 261 266 267 266 268 275 278 281 289 292 297 287
248 243 243 234 219 215 212 209 209 207 206 204 202 203 203 209 222 228 225 221 215 210 208 208 210 214 216 220 223 228 231 231 227 224 226 231 235 239 240 239 239 241 244 247 250 251 252 254 257 260 264 272 283 286 276 273 280 282 277 282 290 290
237 240 242 233 219 212 209 208 208 208 209 203 199 199 199 205 214 220 223 221 216 211 207 207 211 216 218 220 223 229 235 238 236 233 231 232 236 239 242 243 244 245 247 250 254 256 256 257 261 265 274 293 314 320 309 293 292 296 303 304 302 303
232 233 234 226 219 213 212 213 207 205 210 203 194 192 194 200 207 212 219 220 217 213 210 212 217 222 224 224 225 230 239 243 242 241 238 237 238 240 244 247 249 251 252 253 258 262 261 258 257 258 268 288 304 314 315 304 300 306 335 260 288 301
239 230 225 217 214 212 215 221 214 205 208 203 193 190 189 193 200 206 212 216 217 218 218 220 224 228 228 226 226 232 244 248 245 245 244 243 244 245 247 250 253 256 258 259 260 262 263 258 252 248 253 258 257 255 251 253 268 278 261 232 247 258
271 246 238 228 218 217 221 224 218 210 207 201 193 191 189 189 197 204 208 210 214 220 225 227 228 228 226 223 224 230 247 251 245 245 245 244 247 248 249 251 253 256 259 261 261 259 259 257 252 251 256 258 256 256 255 250 250 262 269 262 254 257
319 268 248 241 231 231 232 226 221 219 212 204 199 197 196 196 200 206 211 213 218 223 226 231 233 231 229 227 226 225 234 245 244 244 245 245 247 250 251 251 254 256 257 261 262 260 257 253 251 252 257 260 261 265 269 265 255 258 266 265 261 265
38 341 253 234 226 233 236 232 233 232 221 211 206 203 201 202 202 204 211 217 223 228 230 233 234 236 235 229 225 224 225 235 240 239 241 244 247 249 250 250 253 255 258 262 263 259 253 251 251 254 261 265 262 264 271 272 266 262 264 266 267 266
66 69 307 259 247 246 238 231 232 232 223 211 202 198 197 198 197 200 209 218 221 223 228 233 233 233 233 223 221 227 232 241 244 235 234 240 243 244 246 246 249 252 254 259 260 255 252 252 254 258 266 268 263 266 275 279 276 271 270 270 269 267
68 89 107 186 244 260 248 238 233 227 220 211 200 191 189 189 189 196 205 212 214 216 225 235 234 232 231 227 229 235 237 244 250 242 236 240 241 242 244 243 245 251 253 254 255 254 254 255 258 262 266 265 264 270 278 283 283 278 276 273 268 267